Location: Worth Mountain WMA
(34.9569°N, 81.4819°W)
Time: 15:15:53
(UTC-04:00)

Cosmos 839 Rocket - Pass Details

Date: 18 August 2017
Orbit: 965 x 2087 km, 65.9° (Epoch: 23 September)

Event Time Altitude Azimuth Distance (km) Brightness Sun altitude
Rises 20:49:11 0° 203° (SSW) 3,885 7.2 -8.4°
Reaches altitude 10° 20:51:55 10° 202° (SSW) 2,838 6.4 -8.9°
Maximum altitude 20:58:19 80° 116° (ESE) 990 4.0 -10.1°
Drops below altitude 10° 21:04:29 10° 30° (NNE) 2,727 6.3 -11.2°
Sets 21:07:04 0° 30° (NNE) 3,723 7.0 -11.7°
